Погода в Уфимском

Россия / Свердловская область     56°42′25″N   58°03′19″E
темп.,
°C
ветер,
м/с
пор.,
м/с
влажн.,
%
обл.,
%
осадки,
мм/ч
давл.,
гПа
погр.,
м
23 января, сб
сб2323:00−25в489498 0.1 1026241
02:00−29в3793100 0.0 1029169
05:00−30в239391 0.0 103159
08:00−28вюв2394100 0.0 103255
11:00−27юв379175 0.0 1033201
14:00−22юв369496 0.0 1032246
17:00−22ююв3695100 0.0 1031245
20:00−20ююв3697100 0.1 1031254
24 января, вс
вс2423:00−18юв3896100 0.6 1030278
02:00−16юв3896100 0.9 1027342
05:00−16юв3696100 1.6 1027261
08:00−15вюв3596100 0.6 1027185
11:00−12ююв4994100 0.9 1027411
14:00−13юв4794100 0.4 1028341
17:00−14юв4895100 1.4 1028286
20:00−8ююз2896100 0.8 1024314
25 января, пн
пн2523:00−5зюз1298100 1.7 102479
02:00−4з1297100 0.3 102556
05:00−8юв229798 2.1 102653
08:00+1зюз2798100 0.2 1026315
11:000юз1399100 2.6 1027141
14:00+1зюз39100100 0.9 1028355
17:000юз5996100 0.4 1027451
20:00−2юз41094100 0.1 1028516
26 января, вт
вт2623:00−2юз4995100 1.0 1029453
02:00−3юз31096100 0.7 1029456
05:00−3зюз41093100 0.6 1029641
08:00−3юз3892100 0.0 1029629
11:00−3ююз2795100 0.4 1030502
14:00−2юз3690100 0.1 1030634
17:00−2юз3991100 0.1 1027688
20:00−3ю3896100 0.1 1029544
27 января, ср
ср2723:00−4ююз3993100 0.1 1026570
02:00−4ююз3895100 0.1 1028513
05:00−4ююз3894100 0.1 1028480
08:00−8ююз3994100 0.0 1025349
11:00−8ю399393 0.0 1027327
14:00−5ююз3891100 0.0 1027445
17:00−6юз3992100 0.2 1026464
20:00−7ююз2796100 0.3 1028317